Weather History for Ellington Field, TX

Change the Weather History Date:

Thursday, October 17, 2013

  Actual Average Record
Temperature  
Mean Temperature 71 °F -  
Max Temperature 80 °F 78 °F 91 °F (2007)
Min Temperature 62 °F 61 °F 48 °F (2001)
Cooling Degree Days 6    
Growing Degree Days 21 (Base 50)    
Moisture  
Dew Point 60 °F    
Average Humidity 77    
Maximum Humidity 94    
Minimum Humidity 45    
Precipitation  
Precipitation 0.00 in - - ()
Sea Level Pressure  
Sea Level Pressure 30.02 in    
Wind  
Wind Speed 8 mph (North)    
Max Wind Speed 12 mph    
Max Gust Speed -    
Visibility 10 miles    
Events      
Averages and records for this station are not official NWS values.
T = Trace of Precipitation, MM = Missing Value Source: NWS Daily Summary

Daily Weather History Graph

Daily Weather History Graph

Search for Another Location

Airport:

Trip Planner

Search our weather history database for the weather conditions in past years. The results will help you decide how hot, cold, wet, or windy it might be!

Date:

Astronomy

Oct. 17, 2013 Rise Set
Actual Time 7:23 AM CDT 6:47 PM CDT
Civil Twilight 6:59 AM CDT 7:11 PM CDT
Nautical Twilight 6:31 AM CDT 7:39 PM CDT
Astronomical Twilight 6:04 AM CDT 8:07 PM CDT
Moon 5:59 PM CDT (10/17) 6:01 AM CDT (10/17)
Length of Visible Light 12h 12m
Length of Day
11h 24m
Waxing Gibbous, 98% of the Moon is Illuminated
Oct 17
Waxing Gibbous
Oct 18
Full
Oct 26
Last Quarter
Nov 3
New
Nov 9
First Quarter

Hourly Weather History & Observations

Time (CDT) Temp. Heat Index Dew Point Humidity Pressure Visibility Wind Dir Wind Speed Gust Speed Precip Events Conditions
12:50 AM 64.4 °F - 60.8 °F 88% 30.01 in 9.0 mi NNW 11.5 mph - N/A   Mostly Cloudy
1:50 AM 64.4 °F - 60.8 °F 88% 30.01 in 9.0 mi NW 10.4 mph - N/A   Overcast
2:50 AM 64.4 °F - 60.8 °F 88% 30.00 in 10.0 mi NNW 9.2 mph - N/A   Overcast
3:50 AM 64.4 °F - 60.8 °F 88% 30.00 in 7.0 mi NW 10.4 mph - N/A   Overcast
4:50 AM 62.6 °F - 60.8 °F 94% 30.01 in 9.0 mi NNW 9.2 mph - N/A   Overcast
5:50 AM 62.6 °F - 60.8 °F 94% 30.02 in 8.0 mi NNW 9.2 mph - N/A   Overcast
6:50 AM 62.6 °F - 60.8 °F 94% 30.03 in 9.0 mi NNW 9.2 mph - N/A   Overcast
7:50 AM 62.6 °F - 60.8 °F 94% 30.04 in 10.0 mi NNW 8.1 mph - N/A   Overcast
8:50 AM 64.4 °F - 62.6 °F 94% 30.06 in 10.0 mi NNW 8.1 mph - N/A   Overcast
9:20 AM 64.4 °F - 62.6 °F 94% 30.07 in 10.0 mi NNW 10.4 mph - N/A   Overcast
9:50 AM 64.4 °F - 62.6 °F 94% 30.08 in 10.0 mi NNW 10.4 mph - N/A   Overcast
11:50 AM 66.2 °F - 60.8 °F 83% 30.08 in 10.0 mi North 5.8 mph - N/A   Mostly Cloudy
12:50 PM 69.8 °F - 60.8 °F 73% 30.06 in 10.0 mi Calm Calm - N/A   Mostly Cloudy
1:50 PM 73.4 °F - 68.0 °F 83% 30.03 in 10.0 mi NW 6.9 mph - N/A   Scattered Clouds
2:50 PM 77.0 °F - 60.8 °F 57% 30.00 in 10.0 mi Calm Calm - N/A   Mostly Cloudy
3:50 PM 78.8 °F - 60.8 °F 54% 29.99 in 10.0 mi North 3.5 mph - N/A   Scattered Clouds
4:50 PM 80.6 °F 80.8 °F 57.2 °F 45% 29.99 in 10.0 mi North 4.6 mph - N/A   Scattered Clouds
5:50 PM 78.8 °F - 57.2 °F 47% 29.98 in 10.0 mi North 4.6 mph - N/A   Scattered Clouds
7:50 PM 71.6 °F - 57.2 °F 60% 29.99 in 10.0 mi Calm Calm - N/A   Scattered Clouds
8:50 PM 69.8 °F - 57.2 °F 64% 30.01 in 10.0 mi NE 3.5 mph - N/A   Scattered Clouds
9:50 PM 68.0 °F - 57.2 °F 68% 30.01 in 10.0 mi NNE 4.6 mph - N/A   Scattered Clouds
10:50 PM 66.2 °F - 57.2 °F 73% 30.02 in 10.0 mi NE 3.5 mph - N/A   Scattered Clouds
11:50 PM 66.2 °F - 51.8 °F 60% 30.01 in 10.0 mi NE 4.6 mph - N/A   Scattered Clouds